CW3367 Valrico FL US current weather conditions

sailwx.info

Wind from 163 at 4 knots gusting 6

Air temperature 21.7° C
Dewpoint 20.5° C

Last reported at 2018-Dec-14 19:00 UTC.
Time now 2018-Dec-14 19:25 UTC

Location: N 27°55' W 082°14'.
View on Google Maps.

See reports from other nearby stations

  
Tides and Currents Weather Stations Pressure Air Temp Water Temp Dewpoint Dewpoint Depression Visibility Wind Speed Wind Dir Waves Ship Positions
date/time (UTC)wind fromknots sea level pressurealtimeterstation pressurevisibilityair tempwater tempwave heightnotes
2018-Dec-14 19:09 117 0 gusting 5 21.7
2018-Dec-14 19:00 163 4 gusting 6 21.7
2018-Dec-14 18:54 144 4 gusting 5 21.7
2018-Dec-14 18:45 234 1 gusting 5 21.7
2018-Dec-14 18:40 151 1 gusting 6 21.1
2018-Dec-14 18:34 066 21.1
2018-Dec-14 18:29 227 2 gusting 3 21.1
2018-Dec-14 18:20 169 21.1
2018-Dec-14 18:14 184 4 gusting 6 21.1
2018-Dec-14 18:09 120 21.1
2018-Dec-14 18:04 123 0 gusting 6 21.1
2018-Dec-14 17:55 080 0 gusting 6 21.1
2018-Dec-14 17:50 128 0 gusting 3 21.1
2018-Dec-14 17:44 113 0 gusting 4 21.1
2018-Dec-14 17:35 104 1 gusting 3 21.1
2018-Dec-14 17:29 134 0 gusting 2 21.1
2018-Dec-14 17:19 190 0 gusting 0 20.6
2018-Dec-14 17:10 190 20.6
2018-Dec-14 17:05 190 20.6
2018-Dec-14 17:00 190 20.6
2018-Dec-14 16:55 190 20.6
2018-Dec-14 16:49 190 20.6
2018-Dec-14 16:40 194 20.6
2018-Dec-14 16:35 199 20.6
2018-Dec-14 16:30 199 20.6
2018-Dec-14 16:25 227 0 gusting 0 20.6
2018-Dec-14 16:19 227 0 gusting 0 20.6
2018-Dec-14 16:10 148 20.0
2018-Dec-14 16:05 148 20.0
2018-Dec-14 16:00 101 20.0
2018-Dec-14 15:54 101 20.0
2018-Dec-14 15:44 150 20.0
2018-Dec-14 15:35 179 0 gusting 2 20.0
2018-Dec-14 15:30 113 20.0
2018-Dec-14 15:25 116 0 gusting 2 20.0
2018-Dec-14 15:19 155 20.0
2018-Dec-14 15:10 094 0 gusting 2 20.0
2018-Dec-14 15:04 197 20.0
2018-Dec-14 14:55 194 1 gusting 6 20.0
2018-Dec-14 14:50 214 1 gusting 6 20.0
2018-Dec-14 14:45 184 1 gusting 6 20.0
2018-Dec-14 14:40 225 3 gusting 6 20.6
2018-Dec-14 14:35 160 1 gusting 6 20.6
2018-Dec-14 14:30 153 1 gusting 7 20.6
2018-Dec-14 14:24 182 3 gusting 7 20.6
2018-Dec-14 14:19 188 3 gusting 6 20.6
2018-Dec-14 14:14 227 2 gusting 7 20.6
2018-Dec-14 14:04 208 0 gusting 7 21.1
2018-Dec-14 13:55 136 2 gusting 6 21.1
2018-Dec-14 13:50 202 0 gusting 5 21.1
2018-Dec-14 13:45 153 1 gusting 6 21.1
2018-Dec-14 13:40 188 1 gusting 8 21.1
2018-Dec-14 13:35 194 3 gusting 8 21.1
2018-Dec-14 13:29 162 1 gusting 6 21.1
2018-Dec-14 13:24 220 1 gusting 9 21.1
2018-Dec-14 13:19 186 1 gusting 9 21.1
2018-Dec-14 13:14 202 2 gusting 8 21.1
2018-Dec-14 13:09 138 0 gusting 7 21.1
2018-Dec-14 13:00 215 2 gusting 8 21.1
2018-Dec-14 12:55 156 2 gusting 13 21.1
2018-Dec-14 12:49 218 5 gusting 13 21.1
2018-Dec-14 12:44 223 1 gusting 8 21.1
2018-Dec-14 12:35 190 0 gusting 12 21.1
2018-Dec-14 12:30 134 2 gusting 12 21.1
2018-Dec-14 12:24 219 2 gusting 11 21.1
2018-Dec-14 12:19 152 2 gusting 11 21.1
2018-Dec-14 12:09 167 4 gusting 9 21.1
2018-Dec-14 12:00 207 5 gusting 9 20.6
2018-Dec-14 11:55 121 3 gusting 9 20.6
2018-Dec-14 11:49 153 20.6
2018-Dec-14 11:39 214 5 gusting 9 20.6
2018-Dec-14 11:34 126 3 gusting 9 20.6
2018-Dec-14 11:29 130 2 gusting 8 20.6
2018-Dec-14 11:19 138 0 gusting 9 20.6
2018-Dec-14 11:14 142 1 gusting 9 20.6
2018-Dec-14 11:04 155 2 gusting 6 20.6
2018-Dec-14 10:54 212 3 gusting 6 20.6
2018-Dec-14 10:44 190 1 gusting 7 20.6
2018-Dec-14 10:34 205 2 gusting 10 20.6
2018-Dec-14 10:29 046 2 gusting 6 20.6
2018-Dec-14 10:20 237 1 gusting 6 20.0
2018-Dec-14 10:14 243 1 gusting 6 20.0
2018-Dec-14 10:04 223 0 gusting 9 20.0
2018-Dec-14 09:55 260 3 gusting 7 20.0
2018-Dec-14 09:49 214 1 gusting 12 20.0
2018-Dec-14 09:44 194 6 gusting 12 20.0
2018-Dec-14 09:39 212 1 gusting 7 20.0
2018-Dec-14 09:29 227 2 gusting 9 19.4
2018-Dec-14 09:24 196 2 gusting 9 19.4
2018-Dec-14 09:14 209 0 gusting 6 19.4
2018-Dec-14 09:09 194 0 gusting 7 19.4
2018-Dec-14 09:04 194 2 gusting 7 19.4
2018-Dec-14 08:54 217 3 gusting 9 19.4
2018-Dec-14 08:44 200 2 gusting 9 19.4
2018-Dec-14 08:39 255 3 gusting 8 19.4
2018-Dec-14 08:29 202 1 gusting 8 19.4
2018-Dec-14 08:24 261 7 gusting 10 19.4
2018-Dec-14 08:19 221 3 gusting 10 19.4
2018-Dec-14 08:14 107 1 gusting 13 19.4
2018-Dec-14 08:09 162 1 gusting 13 19.4
2018-Dec-14 08:04 202 4 gusting 7 19.4
2018-Dec-14 07:54 246 7 gusting 7 19.4
2018-Dec-14 07:49 076 0 gusting 7 19.4
2018-Dec-14 07:44 116 2 gusting 8 19.4
2018-Dec-14 07:39 127 2 gusting 8 19.4
2018-Dec-14 07:34 178 3 gusting 6 19.4
2018-Dec-14 07:29 136 1 gusting 6 19.4
2018-Dec-14 07:24 170 1 gusting 5 19.4
2018-Dec-14 07:19 221 1 gusting 5 19.4
2018-Dec-14 07:14 107 1 gusting 7 19.4
2018-Dec-14 07:09 209 3 gusting 7 19.4
2018-Dec-14 07:04 110 6 gusting 7 18.9
2018-Dec-14 06:54 213 1 gusting 7 18.9
2018-Dec-14 06:49 167 2 gusting 7 18.9
2018-Dec-14 06:44 136 2 gusting 7 18.9
2018-Dec-14 06:39 187 18.9
2018-Dec-14 06:34 185 0 gusting 7 18.9
2018-Dec-14 06:29 183 1 gusting 5 19.4
2018-Dec-14 06:24 171 3 gusting 5 19.4
2018-Dec-14 06:19 130 0 gusting 6 19.4
2018-Dec-14 06:14 148 4 gusting 6 19.4
2018-Dec-14 06:09 189 1 gusting 6 19.4
2018-Dec-14 06:04 084 2 gusting 6 19.4
2018-Dec-14 05:54 234 0 gusting 5 19.4
2018-Dec-14 05:49 161 1 gusting 6 19.4
2018-Dec-14 05:44 189 1 gusting 6 19.4
2018-Dec-14 05:39 159 5 gusting 7 19.4
2018-Dec-14 05:34 175 0 gusting 9 19.4
2018-Dec-14 05:29 112 19.4
2018-Dec-14 05:24 144 5 gusting 6 19.4
2018-Dec-14 05:19 096 3 gusting 6 19.4
2018-Dec-14 05:14 181 0 gusting 9 19.4
2018-Dec-14 05:09 174 0 gusting 9 19.4
2018-Dec-14 05:04 154 6 gusting 6 19.4
2018-Dec-14 04:55 117 0 gusting 6 19.4
2018-Dec-14 04:50 162 0 gusting 6 19.4
2018-Dec-14 04:45 178 1 gusting 8 19.4
2018-Dec-14 04:40 110 1 gusting 10 19.4
2018-Dec-14 04:35 049 1 gusting 10 19.4
2018-Dec-14 04:30 113 0 gusting 8 19.4
2018-Dec-14 04:25 164 3 gusting 10 19.4
2018-Dec-14 04:20 091 3 gusting 10 19.4
2018-Dec-14 04:15 130 3 gusting 6 19.4
2018-Dec-14 04:10 082 0 gusting 7 19.4
2018-Dec-14 04:05 129 3 gusting 7 19.4
2018-Dec-14 04:00 109 1 gusting 6 19.4
2018-Dec-14 03:55 177 2 gusting 7 19.4
2018-Dec-14 03:50 109 6 gusting 7 19.4
2018-Dec-14 03:45 086 2 gusting 7 19.4
2018-Dec-14 03:40 084 1 gusting 7 20.0
2018-Dec-14 03:35 100 2 gusting 8 20.0
2018-Dec-14 03:30 154 0 gusting 8 20.0
2018-Dec-14 03:25 054 0 gusting 8 20.0
2018-Dec-14 03:20 146 1 gusting 8 20.0
2018-Dec-14 03:15 233 1 gusting 9 20.0
2018-Dec-14 03:10 286 0 gusting 9 20.0
2018-Dec-14 03:05 102 5 gusting 9 20.0
2018-Dec-14 03:00 111 0 gusting 9 20.0
2018-Dec-14 02:55 155 2 gusting 9 20.0
2018-Dec-14 02:50 183 2 gusting 6 20.0
2018-Dec-14 02:45 104 6 gusting 9 20.0
2018-Dec-14 02:40 161 6 gusting 9 20.0
2018-Dec-14 02:35 046 1 gusting 8 20.0
2018-Dec-14 02:30 044 1 gusting 9 20.0
2018-Dec-14 02:25 092 2 gusting 9 20.0
2018-Dec-14 02:20 090 0 gusting 10 20.0
2018-Dec-14 02:15 103 5 gusting 10 20.0
2018-Dec-14 02:10 082 1 gusting 9 20.0
2018-Dec-14 02:05 012 2 gusting 6 20.0
2018-Dec-14 02:00 150 0 gusting 5 20.0
2018-Dec-14 01:55 176 20.0
2018-Dec-14 01:50 085 20.0
2018-Dec-14 01:45 094 20.0
2018-Dec-14 01:40 115 0 gusting 3 20.0
2018-Dec-14 01:35 028 20.0
2018-Dec-14 01:30 081 20.0
2018-Dec-14 01:25 077 1 gusting 6 20.0
2018-Dec-14 01:20 084 2 gusting 6 20.0
2018-Dec-14 01:15 093 0 gusting 5 20.6
2018-Dec-14 01:10 059 0 gusting 5 20.6
2018-Dec-14 01:05 084 0 gusting 3 20.6
2018-Dec-14 01:00 090 20.6
2018-Dec-14 00:55 082 0 gusting 4 20.6
2018-Dec-14 00:50 052 1 gusting 4 20.6
2018-Dec-14 00:45 074 1 gusting 3 20.6
2018-Dec-14 00:40 069 0 gusting 5 20.6
2018-Dec-14 00:35 074 2 gusting 5 20.6
2018-Dec-14 00:30 101 20.6
2018-Dec-14 00:25 067 0 gusting 4 21.1
2018-Dec-14 00:20 087 21.1
2018-Dec-14 00:15 072 2 gusting 5 21.1
2018-Dec-14 00:10 096 21.1
2018-Dec-14 00:05 107 1 gusting 6 21.1
2018-Dec-14 00:00 051 1 gusting 6 21.1
2018-Dec-13 23:55 053 1 gusting 5 21.1
2018-Dec-13 23:50 096 2 gusting 3 21.1
2018-Dec-13 23:45 069 2 gusting 2 21.1
2018-Dec-13 23:40 079 1 gusting 3 21.1
2018-Dec-13 23:35 082 1 gusting 4 21.1
2018-Dec-13 23:30 078 1 gusting 4 21.1
2018-Dec-13 23:25 088 2 gusting 3 21.1
2018-Dec-13 23:20 069 2 gusting 3 21.7
2018-Dec-13 23:15 098 0 gusting 2 21.7
2018-Dec-13 23:10 092 1 gusting 2 21.7
2018-Dec-13 23:05 092 21.7
2018-Dec-13 23:00 092 22.2
2018-Dec-13 22:55 092 22.2
2018-Dec-13 22:50 092 22.2
2018-Dec-13 22:45 092 0 gusting 1 22.2
2018-Dec-13 22:40 092 22.2
2018-Dec-13 22:35 092 22.8
2018-Dec-13 22:30 092 22.8
2018-Dec-13 22:25 092 0 gusting 2 22.8
2018-Dec-13 22:20 092 22.8
2018-Dec-13 22:15 103 2 gusting 3 23.3
2018-Dec-13 22:10 080 1 gusting 2 23.3
2018-Dec-13 22:05 080 0 gusting 2 23.3
2018-Dec-13 22:00 080 1 gusting 2 23.3
2018-Dec-13 21:55 080 2 gusting 2 23.9
2018-Dec-13 21:50 051 1 gusting 2 23.9
2018-Dec-13 21:45 042 0 gusting 5 23.9
2018-Dec-13 21:40 092 0 gusting 5 23.9
2018-Dec-13 21:35 084 0 gusting 4 23.9
2018-Dec-13 21:30 080 2 gusting 2 23.9
2018-Dec-13 11:40 076 0 gusting 5 13.9
2018-Dec-13 11:35 051 2 gusting 3 13.3
2018-Dec-13 11:30 055 1 gusting 3 13.3
2018-Dec-13 11:25 044 0 gusting 3 13.3
2018-Dec-13 11:20 052 0 gusting 2 13.3
2018-Dec-13 11:15 052 2 gusting 2 13.3
2018-Dec-13 11:10 052 13.3
2018-Dec-13 11:05 052 13.3
2018-Dec-13 11:00 052 13.3
2018-Dec-13 10:55 052 0 gusting 3 13.3
2018-Dec-13 10:50 052 1 gusting 3 13.3
2018-Dec-13 10:45 068 1 gusting 4 13.3
2018-Dec-13 10:40 067 1 gusting 4 13.3
2018-Dec-13 10:35 056 0 gusting 5 13.3
2018-Dec-13 10:30 062 1 gusting 5 13.3
2018-Dec-13 10:25 070 2 gusting 4 12.8
2018-Dec-13 10:20 070 1 gusting 2 12.8
2018-Dec-13 10:15 070 12.8
2018-Dec-13 10:10 070 12.8
2018-Dec-13 10:05 070 12.8
2018-Dec-13 10:00 070 1 gusting 2 12.8
2018-Dec-13 09:55 070 0 gusting 2 12.8
2018-Dec-13 09:50 053 0 gusting 2 12.8
2018-Dec-13 09:45 053 12.8
2018-Dec-13 09:40 053 0 gusting 1 12.8
2018-Dec-13 09:35 053 12.8
2018-Dec-13 09:30 053 12.8
2018-Dec-13 09:25 053 1 gusting 3 12.8
2018-Dec-13 09:20 053 1 gusting 3 12.8
2018-Dec-13 09:14 067 1 gusting 3 12.8
2018-Dec-13 09:05 071 1 gusting 3 12.8
2018-Dec-13 09:00 054 1 gusting 3 12.8
2018-Dec-13 08:55 065 1 gusting 3 12.8
2018-Dec-13 08:50 074 1 gusting 3 12.8
2018-Dec-13 08:45 074 0 gusting 4 12.2
2018-Dec-13 08:40 065 2 gusting 4 12.2
2018-Dec-13 08:35 065 0 gusting 2 12.2
2018-Dec-13 08:30 065 12.2
2018-Dec-13 08:25 065 1 gusting 2 12.2
2018-Dec-13 08:20 065 0 gusting 2 12.2
2018-Dec-13 08:15 065 1 gusting 2 12.2
2018-Dec-13 08:10 065 12.2
2018-Dec-13 08:05 065 0 gusting 3 12.2
2018-Dec-13 08:00 081 1 gusting 3 12.2
2018-Dec-13 07:55 073 12.2
2018-Dec-13 07:50 073 0 gusting 2 12.2
2018-Dec-13 07:45 073 0 gusting 2 12.2
2018-Dec-13 07:40 073 12.2
2018-Dec-13 07:35 073 1 gusting 2 12.2
2018-Dec-13 07:29 073 0 gusting 2 12.2
2018-Dec-13 07:24 073 1 gusting 2 12.2
2018-Dec-13 07:15 072 0 gusting 2 12.2
2018-Dec-13 07:10 072 0 gusting 2 11.7
2018-Dec-13 07:05 078 11.7
2018-Dec-13 07:00 079 11.7
2018-Dec-13 06:55 079 1 gusting 1 11.7
2018-Dec-13 06:50 079 11.7
2018-Dec-13 06:45 079 0 gusting 2 11.7
2018-Dec-13 06:40 079 0 gusting 2 11.7
2018-Dec-13 06:35 079 0 gusting 2 11.7
2018-Dec-13 06:30 074 11.7
2018-Dec-13 06:24 091 1 gusting 2 11.7
2018-Dec-13 06:15 076 0 gusting 2 11.7
2018-Dec-13 06:10 076 0 gusting 1 11.7
2018-Dec-13 06:05 076 0 gusting 1 11.7
2018-Dec-13 06:00 076 11.7
2018-Dec-13 05:54 076 11.7
2018-Dec-13 05:45 076 11.7
2018-Dec-13 05:40 076 0 gusting 0 12.2
2018-Dec-13 05:34 076 12.2
2018-Dec-13 05:25 076 12.2
2018-Dec-13 05:20 076 0 gusting 1 12.2
2018-Dec-13 05:15 076 12.2
2018-Dec-13 05:10 076 12.2
2018-Dec-13 05:05 076 12.8
2018-Dec-13 05:00 076 12.8
2018-Dec-13 04:55 076 12.8
2018-Dec-13 04:50 076 12.8
2018-Dec-13 04:45 076 0 gusting 2 12.8
2018-Dec-13 04:40 076 0 gusting 2 12.8
2018-Dec-13 04:35 078 12.8
2018-Dec-13 04:30 078 1 gusting 1 12.8
2018-Dec-13 04:25 078 12.8
2018-Dec-13 04:20 078 0 gusting 2 12.8
2018-Dec-13 04:15 077 0 gusting 1 12.8
2018-Dec-13 04:10 077 0 gusting 2 12.8
2018-Dec-13 04:05 077 1 gusting 3 12.8
2018-Dec-13 04:00 077 0 gusting 3 12.2
2018-Dec-13 03:55 080 0 gusting 2 12.2
2018-Dec-13 03:50 063 12.2
2018-Dec-13 03:45 063 12.2
2018-Dec-13 03:40 063 12.2
2018-Dec-13 03:35 063 0 gusting 1 12.2
2018-Dec-13 03:30 063 12.2
2018-Dec-13 03:25 063 12.2
2018-Dec-13 03:20 063 12.8
2018-Dec-13 03:15 063 12.8
2018-Dec-13 03:10 063 12.8
2018-Dec-13 03:05 063 12.8
2018-Dec-13 03:00 063 12.8
2018-Dec-13 02:55 063 12.8
2018-Dec-13 02:50 063 12.8
2018-Dec-13 02:45 063 12.8
2018-Dec-13 02:40 063 12.8
2018-Dec-13 02:35 063 12.8
2018-Dec-13 02:30 063 12.8
2018-Dec-13 02:25 063 12.8
2018-Dec-13 02:20 063 12.8
2018-Dec-13 02:15 063 12.8
2018-Dec-13 02:10 063 12.8
2018-Dec-13 02:05 063 1 gusting 1 12.8
2018-Dec-13 02:00 063 12.8
2018-Dec-13 01:55 063 0 gusting 0 12.8
2018-Dec-13 01:50 063 12.8
2018-Dec-13 01:45 063 12.8
2018-Dec-13 01:40 063 12.8
2018-Dec-13 01:35 063 13.3
2018-Dec-13 01:30 063 13.3
2018-Dec-13 01:25 063 13.3
2018-Dec-13 01:20 063 13.3
2018-Dec-13 01:15 063 12.8
2018-Dec-13 01:10 063 12.8
2018-Dec-13 01:05 063 0 gusting 1 12.8
2018-Dec-13 01:00 063 0 gusting 1 12.8
2018-Dec-13 00:55 063 12.8
2018-Dec-13 00:50 063 12.8
2018-Dec-13 00:45 063 12.8
2018-Dec-13 00:40 063 12.8
2018-Dec-13 00:35 063 12.8
2018-Dec-13 00:30 063 13.3
2018-Dec-13 00:25 063 13.3
2018-Dec-13 00:20 063 13.3
2018-Dec-13 00:15 063 13.3
2018-Dec-13 00:10 063 13.3
2018-Dec-13 00:05 063 13.9
2018-Dec-13 00:00 063 13.9
2018-Dec-12 23:55 063 13.9
2018-Dec-12 23:50 063 13.9
2018-Dec-12 23:45 063 14.4
2018-Dec-12 23:40 063 14.4
2018-Dec-12 23:35 063 14.4
2018-Dec-12 23:30 063 14.4
2018-Dec-12 23:25 063 15.0
2018-Dec-12 23:20 063 15.0
2018-Dec-12 23:15 063 15.6
2018-Dec-12 23:10 063 15.6
2018-Dec-12 23:05 063 15.6
2018-Dec-12 23:00 063 16.1
2018-Dec-12 22:55 063 16.1
2018-Dec-12 22:50 063 16.7
2018-Dec-12 22:45 063 16.7
2018-Dec-12 22:40 063 17.2
2018-Dec-12 22:35 063 17.2
2018-Dec-12 22:30 063 17.8
2018-Dec-12 22:25 063 17.8
2018-Dec-12 22:20 063 17.8
2018-Dec-12 22:15 063 17.8
2018-Dec-12 22:10 063 17.8
2018-Dec-12 22:05 064 2 gusting 4 17.8
2018-Dec-12 22:00 080 1 gusting 4 17.8
2018-Dec-12 21:55 075 2 gusting 3 17.8
2018-Dec-12 21:50 067 18.3
2018-Dec-12 21:45 081 1 gusting 6 18.3
2018-Dec-12 21:40 069 1 gusting 4 18.3
2018-Dec-12 21:35 059 0 gusting 3 18.3
2018-Dec-12 21:30 056 1 gusting 4 18.3
2018-Dec-12 21:25 064 1 gusting 5 18.9
2018-Dec-12 21:20 067 1 gusting 5 18.9
2018-Dec-12 21:15 084 1 gusting 4 19.4
2018-Dec-12 21:10 059 1 gusting 3 19.4
2018-Dec-12 21:05 062 1 gusting 3 20.0
2018-Dec-12 21:00 055 3 gusting 4 20.0
2018-Dec-12 20:55 057 1 gusting 4 20.0
2018-Dec-12 20:50 055 0 gusting 4 20.0
2018-Dec-12 20:45 084 2 gusting 2 20.6
2018-Dec-12 20:40 169 0 gusting 3 20.6
2018-Dec-12 20:35 161 20.6
2018-Dec-12 20:30 098 0 gusting 4 21.1
2018-Dec-12 20:25 063 21.1
2018-Dec-12 20:20 063 0 gusting 4 20.6
2018-Dec-12 20:15 116 0 gusting 4 20.6
2018-Dec-12 20:10 087 1 gusting 5 20.6
2018-Dec-12 20:05 069 1 gusting 5 20.6
2018-Dec-12 20:00 060 0 gusting 3 20.6
2018-Dec-12 19:55 074 20.6
2018-Dec-12 19:50 076 2 gusting 5 20.6
2018-Dec-12 19:45 093 0 gusting 5 21.1
2018-Dec-12 19:40 076 21.1
2018-Dec-12 19:35 107 0 gusting 7 21.1
2018-Dec-12 19:30 073 0 gusting 7 21.1
2018-Dec-12 19:25 078 3 gusting 8 21.1
2018-Dec-12 19:20 070 3 gusting 8 21.1
2018-Dec-12 19:15 178 2 gusting 7 21.1
2018-Dec-12 19:10 054 0 gusting 7 20.6
2018-Dec-12 19:05 176 2 gusting 7 20.6
2018-Dec-12 19:00 049 4 gusting 7 20.6